Regional Weather Roundup
Issued by NWS Upton, NY

Current Version | Previous Version | Text Only | Print | Product List | Glossary On
Versions: 1 2 3 4 5 6 7 8 9 10 11 12 13 14 15 16 17 18 19 20 21 22 23 24 25 26 27 28 29 30 31 32 33 34 35 36 37 38 39 40 41 42 43 44 45 46 47 48 49 50
000 ASUS41 KOKX 261105 RWROKX REGIONAL WEATHER ROUNDUP NATIONAL WEATHER SERVICE NEW YORK NY 600 AM EST FRI DEC 26 2014 NOTE: "FAIR" INDICATES FEW OR NO CLOUDS BELOW 12,000 FEET WITH NO SIGNIFICANT WEATHER AND/OR OBSTRUCTIONS TO VISIBILITY. NYZ071-072-176-178-NJZ106-104-261200- NEW YORK CITY METRO AREA CITY SKY/WX TMP DP RH WIND PRES REMARKS CENTRAL PARK CLEAR 40 28 62 W6 30.22R LAGUARDIA APRT CLEAR 41 29 62 W10 30.19R KENNEDY INTL CLEAR 40 30 67 W10 30.21R WCI 33 NEWARK/LIBERTY CLEAR 37 29 72 W12 30.21R WCI 29 BRNX BOT. GARD N/A N/A N/A N/A SW13 30.19R TETERBORO CLEAR 35 29 78 SW7 30.20R WCI 29 $$ NYZ177-179-078>081-261200- LONG ISLAND NEW YORK CITY SKY/WX TMP DP RH WIND PRES REMARKS FARMINGDALE CLEAR 38 30 73 W8 30.19R WCI 32 ISLIP CLEAR 36 30 79 SW8 30.16R WCI 30 SHIRLEY CLEAR 37 30 75 W6 30.18R WCI 32 WESTHAMPTON CLEAR 27 24 89 CALM 30.18R MONTAUK POINT N/A 42 34 73 SW5 30.16R $$ NYZ052-065-067-261200- HUDSON VALLEY CITY SKY/WX TMP DP RH WIND PRES REMARKS WHITE PLAINS CLEAR 37 28 70 W6 30.16R WCI 32 NEWBURGH CLEAR 32 28 86 CALM 30.16R MONTGOMERY CLEAR 31 25 78 S5 30.15R WCI 26 POUGHKEEPSIE CLEAR 29 25 85 CALM 30.16R ALBANY CLOUDY 41 27 57 NW14 30.16R $$ NJZ001-105-106-008-010-013-015-019>022-104-261200- NEW JERSEY CITY SKY/WX TMP DP RH WIND PRES REMARKS NEWARK/LIBERTY CLEAR 37 29 72 W12 30.21R WCI 29 TETERBORO CLEAR 35 29 78 SW7 30.20R WCI 29 CALDWELL CLEAR 32 28 85 CALM 30.20R MORRISTOWN CLEAR 34 28 80 SW5 30.19R WCI 30 SOMERVILLE CLEAR 28 25 88 CALM 30.21R SUSSEX CLEAR 28 25 88 CALM 30.18R ANDOVER NOT AVBL TRENTON CLEAR 35 27 72 W5 30.22R WCI 31 MILLVILLE CLEAR 27 26 96 W3 30.25R ATLANTIC CITY CLEAR 35 30 82 W6 30.25R WCI 30 WRIGHTSTOWN CLEAR 34 29 82 W5 30.21R WCI 30 TOMS RIVER CLEAR 34 28 80 CALM 30.22R BELMAR CLEAR 36 25 64 W7 30.21R WCI 30 $$ PAZ047>061-062-071-261200- EASTERN PENNSYLVANIA CITY SKY/WX TMP DP RH WIND PRES REMARKS PHILADELPHIA CLEAR 38 29 70 W12 30.26R WCI 30 ALLENTOWN CLEAR 34 27 75 SW6 30.22R WCI 29 SCRANTON CLEAR 33 26 75 SW6 30.19R WCI 28 $$ CTZ002-004>006-009-010-012-RIZ004-006-007-MAZ004-011-015-261200- SOUTHERN NEW ENGLAND IN CT CITY SKY/WX TMP DP RH WIND PRES REMARKS BRADLEY INTL CLOUDY 40 29 64 W6 30.12R HARTFORD CLEAR 32 28 85 S3 30.13R DANBURY CLEAR 29 25 85 S3 30.16R WTRBRY/OXFORD CLEAR 39 30 70 CALM 30.14R BRIDGEPORT CLEAR 39 31 72 W6 30.17R WCI 35 MERIDEN CLEAR 27 25 92 CALM 30.15R NEW HAVEN CLEAR 42 30 62 VRB3 30.16R CHESTER FAIR 36 30 80 W5 30.14R WCI 32 GROTON CLEAR 37 30 75 W6 30.14R WCI 32 WILLIMANTIC CLEAR 36 29 75 W3 30.13R IN RI CITY SKY/WX TMP DP RH WIND PRES REMARKS PROVIDENCE CLEAR 36 29 75 SW7 30.12R WCI 30 BLOCK ISLAND CLEAR 43 30 61 W8 30.13R WESTERLY CLEAR 39 29 67 W5 30.14R IN MA CITY SKY/WX TMP DP RH WIND PRES REMARKS BOSTON CLEAR 38 29 70 SW10 30.08R WCI 31 WORCESTER CLEAR 35 28 75 W8 30.06R WCI 29 WESTFIELD MOCLDY 42 29 59 NW12G23 30.11R PROVINCETOWN CLEAR 43 30 61 W14 30.09R NANTUCKET CLEAR 42 31 64 W10 30.12R $$ ANZ330-335-338-340-345-350-353-355-261200- COASTAL MARINE OBSERVATIONS STATION/POSITION TIME SKY/WX TEMP WIND PRES VSBY WAVE AIR SEA DIR/SP/G HT/PER (UTC) (F) (DEG/KT/KT) (MB) (MI) (FT/S) NY HARB ENTRANCE 1100 42 45 260/ 16/ 17 1023.3 2/ 9 4S FIRE IS 1100 47 N/A 4/ 5 20S FIRE ISLAND 1000 45 49 1021.4 5/ 5 23SW MTP 1100 N/A 5/ 6 HUDSON CANYON 1100 46 55 300/ 16/ 21 1021.6 6/ 6 EXECUTION ROCKS 1100 42 42 250/ 12/ 14 N/A WESTERN LI SOUND 1100 42 240/ 14/ 16 N/A 1 CENTRAL LI SOUND 1000 43 44 260/ 14/ 16 N/A 2/ 4 EASTERN LI SOUND NOT AVBL ROBBINS REEF 1100 39 1021.8 $$ >>>>>>>>>>>>>>>>>>>>>>>>>>>> KEY <<<<<<<<<<<<<<<<<<<<<<<<<<< > < > SKY/WX - SKY CONDITION/PRESENT WEATHER < > TMP - TEMPERATURE IN FAHRENHEIT < > DP - DEWPOINT IN FAHRENHEIT < > RH - RELATIVE HUMIDITY IN PERCENT < > WIND - DIRECTION AND SPEED IN MPH < > PRES - MEAN SEA LEVEL PRESSURE IN INCHES OF HG < > WCI - WIND CHILL INDEX < > VSB - VISIBILITY IN MILES < > HX - HEAT INDEX < > TC - TEMPERATURE IN CELSIUS < > VRB - VARIABLE WIND DIRECTION < > < >>>>>>>>>>>>>>>>>>>>>>>>>>>> KEY <<<<<<<<<<<<<<<<<<<<<<<<<<<

USA.gov is the U.S. government's official web portal to all federal, state and local government web resources and services.